Devils Lake, ND

12:47 AM CDT on October 18, 2017 (GMT -0500)
Devils Lake Municipal

Weather History for KDVL - April, 2014

Change the Weather History Date:

Friday, April 4, 2014

  Actual Average Record
Temperature  
Mean Temperature 24 °F -  
Max Temperature 30 °F 45 °F 71 °F (1991)
Min Temperature 19 °F 23 °F 0 °F (2002)
Degree Days  
Heating Degree Days 40    
Moisture  
Dew Point 17 °F    
Average Humidity 69    
Maximum Humidity 80    
Minimum Humidity 60    
Precipitation  
Precipitation 0.00 in - - ()
Sea Level Pressure  
Sea Level Pressure 30.02 in    
Wind  
Wind Speed 9 mph (NW)    
Max Wind Speed 15 mph    
Max Gust Speed 20 mph    
Visibility 10 miles    
Events      
Averages and records for this station are not official NWS values.
T = Trace of Precipitation, MM = Missing Value Source: NWS Daily Summary

Daily Weather History Graph

Daily Weather History Graph

Search for Another Location

Airport or City:

Trip Planner

Search our weather history database for the weather conditions in past years. The results will help you decide how hot, cold, wet, or windy it might be!

Date:

Astronomy

Apr. 04, 2014 Rise Set
Actual Time 7:07 AM CDT 8:10 PM CDT
Civil Twilight 6:36 AM CDT 8:42 PM CDT
Nautical Twilight 5:57 AM CDT 9:20 PM CDT
Astronomical Twilight 5:17 AM CDT 10:01 PM CDT
Moon 10:09 AM CDT (4/4) 12:46 AM CDT (4/4)
Length of Visible Light 14h 06m
Length of Day
13h 02m
Waxing Crescent, 25% of the Moon is Illuminated
Apr 4
Waxing Crescent
Apr 7
First Quarter
Apr 15
Full
Apr 22
Last Quarter
Apr 29
New

Hourly Weather History & Observations

Time (CDT) Temp. Windchill Dew Point Humidity Pressure Visibility Wind Dir Wind Speed Gust Speed Precip Events Conditions
12:15 AM 26.6 °F 19.1 °F 19.4 °F 74% 30.04 in 10.0 mi North 6.9 mph - N/A   Overcast
12:35 AM 26.6 °F 16.8 °F 19.4 °F 74% 30.04 in 10.0 mi North 10.4 mph - N/A   Overcast
12:55 AM 26.6 °F 16.8 °F 19.4 °F 74% 30.04 in 10.0 mi North 10.4 mph - N/A   Overcast
1:15 AM 26.6 °F 15.7 °F 19.4 °F 74% 30.04 in 10.0 mi North 12.7 mph - N/A   Overcast
1:35 AM 26.6 °F 16.8 °F 19.4 °F 74% 30.04 in 10.0 mi North 10.4 mph - N/A   Overcast
1:55 AM 24.8 °F 16.1 °F 17.6 °F 74% 30.04 in 10.0 mi North 8.1 mph - N/A   Mostly Cloudy
2:15 AM 21.2 °F 12.6 °F 15.8 °F 80% 30.04 in 10.0 mi NNW 6.9 mph - N/A   Partly Cloudy
2:35 AM 21.2 °F 11.7 °F 15.8 °F 80% 30.04 in 10.0 mi NNW 8.1 mph - N/A   Clear
2:55 AM 19.4 °F 11.5 °F 12.2 °F 74% 30.04 in 10.0 mi NNW 5.8 mph - N/A   Mostly Cloudy
3:15 AM 21.2 °F 14.9 °F 15.8 °F 80% 30.04 in 10.0 mi North 4.6 mph - N/A   Overcast
3:35 AM 23.0 °F 14.7 °F 15.8 °F 74% 30.04 in 10.0 mi NNW 6.9 mph - N/A   Overcast
3:55 AM 24.8 °F 14.6 °F 17.6 °F 74% 30.03 in 10.0 mi NNW 10.4 mph - N/A   Overcast
4:15 AM 26.6 °F 15.7 °F 17.6 °F 69% 30.03 in 10.0 mi NNW 12.7 mph - N/A   Overcast
4:35 AM 26.6 °F 16.2 °F 19.4 °F 74% 30.03 in 10.0 mi NNW 11.5 mph - N/A   Overcast
4:55 AM 26.6 °F 15.2 °F 17.6 °F 69% 30.04 in 10.0 mi North 13.8 mph - N/A   Overcast
5:15 AM 26.6 °F 15.7 °F 17.6 °F 69% 30.03 in 10.0 mi NNW 12.7 mph - N/A   Overcast
5:35 AM 26.6 °F 15.2 °F 17.6 °F 69% 30.03 in 10.0 mi North 13.8 mph - N/A   Overcast
5:55 AM 24.8 °F 13.4 °F 15.8 °F 69% 30.03 in 10.0 mi North 12.7 mph - N/A   Mostly Cloudy
6:15 AM 21.2 °F 10.1 °F 14.0 °F 74% 30.04 in 10.0 mi NNW 10.4 mph - N/A   Mostly Cloudy
6:35 AM 21.2 °F 8.9 °F 15.8 °F 80% 30.04 in 10.0 mi NW 12.7 mph - N/A   Overcast
6:55 AM 23.0 °F 10.6 °F 15.8 °F 74% 30.04 in 10.0 mi NNW 13.8 mph - N/A   Overcast
7:15 AM 24.8 °F 12.4 °F 15.8 °F 69% 30.04 in 10.0 mi North 15.0 mph - N/A   Overcast
7:35 AM 23.0 °F 10.6 °F 15.8 °F 74% 30.05 in 10.0 mi North 13.8 mph - N/A   Overcast
7:55 AM 23.0 °F 10.6 °F 15.8 °F 74% 30.05 in 10.0 mi North 13.8 mph 19.6 mph N/A   Overcast
8:15 AM 24.8 °F 13.4 °F 15.8 °F 69% 30.06 in 10.0 mi North 12.7 mph - N/A   Overcast
8:35 AM 24.8 °F 12.9 °F 15.8 °F 69% 30.06 in 10.0 mi North 13.8 mph - N/A   Overcast
8:55 AM 23.0 °F 10.1 °F 15.8 °F 74% 30.06 in 10.0 mi North 15.0 mph - N/A   Overcast
9:15 AM 24.8 °F 14.0 °F 15.8 °F 69% 30.07 in 10.0 mi North 11.5 mph - N/A   Overcast
9:35 AM 24.8 °F 14.0 °F 15.8 °F 69% 30.07 in 10.0 mi NNW 11.5 mph - N/A   Overcast
9:55 AM 24.8 °F 14.0 °F 15.8 °F 69% 30.07 in 10.0 mi NNW 11.5 mph - N/A   Overcast
10:15 AM 24.8 °F 13.4 °F 15.8 °F 69% 30.07 in 10.0 mi NW 12.7 mph - N/A   Overcast
10:35 AM 24.8 °F 14.0 °F 17.6 °F 74% 30.07 in 10.0 mi NNW 11.5 mph - N/A   Overcast
10:55 AM 24.8 °F 14.0 °F 15.8 °F 69% 30.07 in 10.0 mi NNW 11.5 mph - N/A   Overcast
11:15 AM 26.6 °F 17.5 °F 17.6 °F 69% 30.07 in 10.0 mi NNW 9.2 mph - N/A   Overcast
11:35 AM 26.6 °F 16.8 °F 17.6 °F 69% 30.07 in 10.0 mi NNW 10.4 mph - N/A   Overcast
11:55 AM 26.6 °F 19.1 °F 17.6 °F 69% 30.07 in 10.0 mi North 6.9 mph - N/A   Overcast
12:15 PM 26.6 °F 18.2 °F 17.6 °F 69% 30.07 in 10.0 mi North 8.1 mph - N/A   Overcast
12:35 PM 26.6 °F 19.1 °F 17.6 °F 69% 30.06 in 10.0 mi NNW 6.9 mph - N/A   Overcast
12:55 PM 28.4 °F 18.5 °F 17.6 °F 64% 30.06 in 10.0 mi NNW 11.5 mph - N/A   Overcast
1:15 PM 28.4 °F 19.7 °F 17.6 °F 64% 30.05 in 10.0 mi NW 9.2 mph - N/A   Overcast
1:35 PM 28.4 °F 19.1 °F 17.6 °F 64% 30.05 in 10.0 mi WNW 10.4 mph - N/A   Mostly Cloudy
1:55 PM 28.4 °F 20.4 °F 17.6 °F 64% 30.04 in 10.0 mi West 8.1 mph - N/A   Mostly Cloudy
2:15 PM 28.4 °F 21.2 °F 17.6 °F 64% 30.04 in 10.0 mi WNW 6.9 mph - N/A   Overcast
2:35 PM 28.4 °F 23.3 °F 17.6 °F 64% 30.04 in 10.0 mi West 4.6 mph - N/A   Overcast
2:55 PM 28.4 °F 23.3 °F 17.6 °F 64% 30.03 in 10.0 mi WNW 4.6 mph - N/A   Overcast
3:15 PM 30.2 °F 25.4 °F 19.4 °F 64% 30.02 in 10.0 mi SW 4.6 mph - N/A   Overcast
3:35 PM 30.2 °F 25.4 °F 17.6 °F 60% 30.02 in 10.0 mi WSW 4.6 mph - N/A   Mostly Cloudy
3:55 PM 30.2 °F 24.3 °F 17.6 °F 60% 30.02 in 10.0 mi West 5.8 mph - N/A   Mostly Cloudy
4:15 PM 30.2 °F 24.3 °F 19.4 °F 64% 30.01 in 10.0 mi WSW 5.8 mph - N/A   Scattered Clouds
4:35 PM 30.2 °F 24.3 °F 19.4 °F 64% 30.01 in 10.0 mi WSW 5.8 mph - N/A   Clear
4:55 PM 30.2 °F 25.4 °F 19.4 °F 64% 30.00 in 10.0 mi WSW 4.6 mph - N/A   Clear
5:15 PM 30.2 °F 23.4 °F 19.4 °F 64% 30.00 in 10.0 mi SW 6.9 mph - N/A   Clear
5:35 PM 30.2 °F 23.4 °F 19.4 °F 64% 30.00 in 10.0 mi SW 6.9 mph - N/A   Clear
5:55 PM 30.2 °F 22.6 °F 17.6 °F 60% 30.00 in 10.0 mi SW 8.1 mph - N/A   Clear
6:15 PM 28.4 °F 21.2 °F 17.6 °F 64% 29.99 in 10.0 mi WSW 6.9 mph - N/A   Clear
6:35 PM 28.4 °F 21.2 °F 17.6 °F 64% 29.99 in 10.0 mi SW 6.9 mph - N/A   Clear
6:55 PM 30.2 °F 24.3 °F 19.4 °F 64% 29.98 in 10.0 mi SW 5.8 mph - N/A   Clear
7:15 PM 30.2 °F 23.4 °F 17.6 °F 60% 29.98 in 10.0 mi South 6.9 mph - N/A   Clear
7:35 PM 28.4 °F 20.4 °F 17.6 °F 64% 29.98 in 10.0 mi SSE 8.1 mph - N/A   Clear
7:55 PM 28.4 °F 21.2 °F 17.6 °F 64% 29.97 in 10.0 mi South 6.9 mph - N/A   Clear
8:15 PM 26.6 °F 18.2 °F 17.6 °F 69% 29.97 in 10.0 mi South 8.1 mph - N/A   Clear
8:35 PM 26.6 °F 19.1 °F 17.6 °F 69% 29.97 in 10.0 mi South 6.9 mph - N/A   Clear
8:55 PM 26.6 °F 19.1 °F 17.6 °F 69% 29.97 in 10.0 mi South 6.9 mph - N/A   Clear
9:15 PM 24.8 °F 16.1 °F 15.8 °F 69% 29.96 in 10.0 mi SSE 8.1 mph - N/A   Clear
9:35 PM 24.8 °F 15.3 °F 15.8 °F 69% 29.96 in 10.0 mi SSE 9.2 mph - N/A   Clear
9:55 PM 24.8 °F 15.3 °F 17.6 °F 74% 29.96 in 10.0 mi SSE 9.2 mph - N/A   Clear
10:15 PM 23.0 °F 13.9 °F 15.8 °F 74% 29.94 in 10.0 mi SE 8.1 mph - N/A   Clear
10:35 PM 24.8 °F 14.0 °F 17.6 °F 74% 29.94 in 10.0 mi SSE 11.5 mph - N/A   Clear
10:55 PM 24.8 °F 14.6 °F 17.6 °F 74% 29.94 in 10.0 mi SSE 10.4 mph - N/A   Clear
11:15 PM 24.8 °F 14.6 °F 15.8 °F 69% 29.93 in 10.0 mi SSE 10.4 mph - N/A   Clear
11:35 PM 24.8 °F 14.6 °F 15.8 °F 69% 29.92 in 10.0 mi SSE 10.4 mph - N/A   Clear
11:55 PM 24.8 °F 13.4 °F 15.8 °F 69% 29.92 in 10.0 mi South 12.7 mph - N/A   Clear